Theta_e
299 299 296 294 292 292 292 292 292 292 292 291 291 290 290 291 290 290 289 288 288 287 287 287 287 287 287 287 287 287 286 287 288 287 288 290 293 295 296 298 300 300 301
298 297 295 292 290 290 291 291 291 292 291 291 291 290 290 290 290 289 289 288 287 286 285 285 286 286 286 286 286 286 285 286 287 283 284 286 289 297 295 295 295 298 301
298 295 293 291 291 290 290 290 290 291 291 290 289 288 288 288 287 288 288 287 286 286 285 285 285 285 285 285 285 285 284 283 285 285 283 283 284 286 291 292 293 294 297
297 296 293 292 291 291 292 290 290 290 290 290 288 287 287 287 288 287 287 286 286 285 285 284 284 285 285 284 285 284 284 283 281 284 284 284 284 281 282 288 290 292 292
297 295 293 292 292 291 291 290 290 289 289 289 288 288 287 287 287 286 285 285 285 284 284 284 284 284 284 284 284 283 283 283 282 282 282 282 282 283 280 278 284 289 292
296 297 295 293 291 291 290 291 289 288 289 288 288 287 286 286 285 284 283 283 283 283 283 283 283 283 283 283 283 283 282 282 282 282 281 280 278 281 281 281 282 282 286
295 294 292 290 290 289 289 289 289 287 288 288 287 287 286 285 284 283 282 281 281 281 282 282 282 282 282 282 282 282 281 281 281 281 280 281 281 281 280 278 276 278 281
293 293 292 290 289 288 288 288 288 288 288 287 286 286 285 284 283 282 281 280 280 280 281 280 281 281 281 281 281 280 280 281 280 280 280 280 280 280 279 277 276 275 277
293 291 291 290 289 288 288 289 288 288 287 286 286 284 283 282 281 280 280 279 280 279 279 280 279 280 280 280 279 279 279 280 280 279 279 279 280 280 279 279 278 275 271
294 292 290 289 289 289 289 289 289 288 287 286 285 283 282 281 280 279 278 278 279 278 278 278 278 278 278 278 278 278 278 278 278 278 277 278 278 278 278 278 278 277 276
295 293 290 289 289 289 288 288 288 287 286 284 283 281 280 279 278 277 277 277 277 277 277 277 277 277 277 277 276 276 276 275 275 276 276 276 276 276 277 277 277 276 276
295 294 291 289 288 287 287 287 287 286 284 283 281 279 278 277 276 276 276 277 276 277 276 276 275 275 275 275 275 274 274 274 273 273 273 274 275 274 275 276 275 276 276
294 292 289 287 286 286 286 286 285 284 282 280 279 277 276 276 275 275 275 275 275 275 275 275 274 274 273 273 274 273 273 273 273 273 273 273 273 274 275 275 275 275 276
292 294 290 287 287 286 285 284 283 281 279 277 276 276 275 275 275 275 274 274 274 274 274 273 273 273 273 273 273 272 272 273 273 274 275 275 275 274 274 275 275 276 276
292 292 290 287 286 285 283 282 281 278 277 275 275 275 274 274 273 273 273 273 273 272 272 272 272 272 272 272 272 272 273 273 274 274 275 276 276 277 277 276 275 275 275
295 293 289 286 284 283 282 279 278 276 275 274 274 273 273 272 272 271 271 271 271 271 271 271 271 271 271 272 274 274 274 273 273 273 274 275 276 276 278 279 280 279 276
294 293 287 284 283 281 280 278 275 274 274 273 273 271 271 270 270 270 269 269 269 270 270 270 270 270 270 273 274 274 274 274 273 273 273 274 275 275 276 278 280 280 281
295 292 288 285 283 281 279 276 273 273 273 272 271 270 269 269 268 268 268 268 269 269 269 269 268 269 270 272 273 274 274 273 273 274 274 273 273 275 275 275 276 278 279
297 295 288 284 281 279 276 273 272 272 271 270 270 269 268 267 266 265 267 267 268 268 267 268 268 267 268 271 273 274 272 272 273 274 274 274 274 275 277 275 275 277 278
285 282 281 278 276 274 274 272 271 270 270 270 269 268 267 266 265 266 266 267 266 266 268 267 267 267 267 271 273 273 273 272 273 274 274 275 275 276 277 275 276 274 278
279 277 276 274 273 273 273 272 270 270 270 269 267 266 266 265 265 265 265 265 265 266 265 265 267 269 270 270 273 275 273 273 272 272 271 273 274 275 276 277 276 276 279
276 275 274 272 272 273 273 271 270 269 267 266 265 265 264 265 265 262 264 264 264 264 265 266 268 269 270 271 273 275 275 275 271 270 271 272 274 275 277 277 278 279 280
275 274 272 270 271 272 272 270 267 266 265 264 263 263 263 264 263 263 264 265 265 265 265 267 267 267 269 271 273 274 275 273 270 271 272 272 274 275 276 277 278 279 278
273 272 270 269 269 270 271 269 266 265 263 263 263 263 263 263 263 265 265 265 265 265 267 267 266 267 269 270 272 272 272 271 270 270 267 270 272 272 274 276 277 278 279
272 271 271 270 268 268 266 266 265 263 263 264 264 263 263 263 263 264 264 265 266 267 267 267 267 267 267 270 273 272 270 269 270 267 266 266 268 268 269 271 272 274 277
271 270 271 269 267 265 264 264 263 264 264 263 262 262 262 262 262 263 263 263 265 267 267 268 269 269 271 272 272 273 272 271 270 264 263 264 265 266 267 267 269 271 271
Wind_Speed
18 19 21 21 20 19 18 18 16 14 11 8 6 4 4 4 4 4 5 5 3 5 5 5 6 6 6 8 8 9 10 10 10 12 12 13 15 12 11 9 10 13 13
16 18 20 20 21 20 19 18 17 16 12 8 6 3 3 3 3 4 5 5 5 5 6 7 7 7 6 8 8 8 8 8 6 8 11 12 13 1 11 14 14 16 13
17 17 19 22 21 22 22 19 18 16 14 11 6 4 2 3 4 5 3 3 5 6 7 8 8 7 7 7 8 8 10 8 8 7 4 8 9 18 7 12 13 16 13
14 15 19 22 24 22 18 19 18 16 13 14 10 10 7 6 4 3 4 5 7 8 7 8 8 8 7 8 7 6 8 9 10 7 5 10 11 8 20 9 14 17 18
14 17 19 20 19 19 18 19 18 15 13 13 12 9 9 6 4 4 7 7 7 7 8 9 9 8 7 9 10 10 10 8 10 9 9 11 11 14 12 20 18 14 14
12 13 14 15 17 18 18 18 19 18 15 15 14 14 12 9 6 6 5 5 5 6 9 9 8 9 9 10 9 11 13 12 12 11 12 12 12 11 12 15 22 25 18
10 11 14 16 17 20 20 19 21 21 18 17 15 14 12 10 9 7 5 6 6 7 8 9 9 8 9 11 11 12 14 14 13 15 13 13 13 13 14 15 18 21 18
8 10 13 15 18 19 22 22 22 21 20 18 16 12 11 6 6 7 6 6 7 7 9 9 10 11 12 12 13 12 12 14 14 19 16 14 13 13 14 16 15 19 20
10 12 13 16 17 20 22 23 22 20 20 18 13 12 9 9 7 7 7 7 7 7 10 11 11 11 12 13 14 12 15 15 16 17 18 16 13 14 14 15 15 17 21
12 12 13 15 16 18 19 22 22 21 20 17 13 10 10 9 7 7 8 8 8 10 10 10 11 12 13 14 15 14 15 16 14 13 18 17 14 16 13 15 15 17 18
12 12 13 14 15 15 18 19 20 21 19 16 13 11 9 8 8 7 6 8 9 9 9 10 11 13 14 14 15 16 18 18 19 18 19 20 20 15 14 14 15 16 16
12 11 12 14 16 17 18 19 18 18 17 15 13 11 9 8 7 6 7 7 8 8 9 10 12 13 14 15 16 17 16 18 20 20 21 20 15 20 18 15 19 17 18
13 12 13 16 16 16 17 18 18 18 16 15 12 10 9 8 7 7 6 6 7 9 10 11 12 14 15 15 16 17 18 19 19 20 21 20 20 19 16 17 16 16 15
13 16 15 16 15 15 16 18 19 17 16 14 12 11 10 8 6 5 6 6 7 9 10 11 12 14 15 16 16 16 18 20 19 21 20 20 21 22 21 18 19 18 17
13 19 16 15 16 16 16 16 17 16 16 14 12 11 9 6 5 5 5 6 7 9 10 11 12 13 13 11 15 18 20 21 21 20 20 20 22 30 29 17 18 19 17
25 21 17 14 16 19 18 18 17 16 15 14 12 10 8 6 5 4 5 7 8 9 10 11 12 13 11 20 24 24 19 21 21 21 20 20 24 25 35 36 38 31 20
24 16 18 18 17 19 20 21 18 16 14 13 11 10 8 7 5 4 5 7 8 8 10 11 12 14 15 23 26 29 19 20 20 21 20 19 16 23 21 26 32 34 37
23 12 13 13 15 17 19 18 18 16 14 13 12 10 8 6 5 4 5 6 5 8 9 11 12 14 14 24 27 30 20 19 21 20 21 22 23 22 23 22 23 23 22
19 8 9 11 15 18 19 18 16 15 14 14 13 11 8 6 5 4 4 4 6 7 9 10 12 14 16 26 28 27 19 19 21 20 21 21 22 28 33 23 22 25 19
3 8 13 14 15 16 18 19 17 15 14 14 12 10 8 6 5 4 3 3 5 7 8 11 12 16 15 22 27 26 15 20 17 20 20 27 28 35 35 23 18 22 17
9 14 14 14 16 17 18 17 15 14 13 13 12 10 8 6 4 3 2 3 5 7 8 10 12 14 14 16 26 30 18 16 18 16 16 15 30 33 33 34 20 21 16
11 12 12 13 14 17 17 17 15 15 14 13 12 10 8 5 5 4 2 2 4 5 8 11 11 10 13 19 21 30 31 30 18 18 16 18 34 36 36 28 29 31 26
13 13 14 14 14 13 13 17 15 15 13 12 11 10 9 6 5 4 2 1 3 4 7 9 10 11 11 11 25 28 32 29 20 16 26 33 33 34 18 25 28 25 13
15 14 16 19 16 12 11 12 15 14 12 10 10 9 8 7 4 3 2 1 2 4 7 8 10 11 11 12 13 14 15 19 16 21 16 22 24 23 22 11 14 11 11
15 17 16 16 18 15 14 14 14 14 13 11 8 7 5 5 4 3 1 0 1 6 7 7 9 10 11 13 24 23 16 15 19 18 12 13 13 13 13 12 11 10 9
17 17 17 18 18 15 15 15 13 13 13 11 9 6 5 4 4 3 2 2 4 8 8 12 12 9 19 26 28 29 28 27 29 12 13 13 14 14 14 14 14 11 13
Wind_Direction
230 211 203 198 194 193 190 192 186 187 181 184 188 206 211 196 226 221 243 246 287 302 315 304 295 291 300 310 308 312 316 320 330 312 320 298 274 263 261 273 281 281 277
230 210 200 198 197 191 193 193 193 188 191 188 189 188 186 215 257 261 255 265 299 308 300 291 287 291 301 300 306 318 317 315 340 323 299 322 310 179 326 302 286 281 287
225 207 201 202 198 196 195 195 193 190 190 187 170 163 193 241 243 235 253 292 295 287 277 279 283 295 294 298 307 316 316 309 310 310 297 313 302 327 276 311 290 285 283
217 202 201 203 203 200 192 193 192 189 189 183 185 195 207 223 224 265 278 276 272 280 283 290 294 300 297 291 297 299 294 294 295 305 257 257 283 305 312 294 303 295 280
205 198 201 205 204 195 192 190 189 189 186 186 196 198 213 230 243 258 275 279 295 305 303 288 288 284 284 285 289 291 288 283 281 279 276 271 265 264 265 288 297 289 290
200 202 195 198 200 194 193 193 191 191 188 190 196 203 209 213 225 234 257 284 296 276 263 268 278 278 279 282 287 289 284 279 275 272 268 264 260 260 258 260 278 286 284
187 191 190 193 192 194 192 195 193 195 189 193 196 202 210 214 230 241 242 254 262 267 271 272 278 280 285 288 287 283 277 275 274 273 270 264 258 263 264 263 265 274 281
207 205 200 196 195 193 194 196 195 195 192 192 194 197 201 208 219 228 238 253 256 269 278 277 279 280 285 287 285 281 276 276 275 272 267 267 259 255 254 257 262 272 272
212 211 203 205 197 197 199 198 195 193 193 191 190 189 192 204 218 231 239 250 256 265 276 276 280 289 286 284 283 277 276 274 273 271 270 266 263 257 255 256 258 264 274
211 211 206 206 207 206 200 200 197 193 188 186 183 183 189 201 218 228 236 249 264 264 270 282 289 291 290 287 282 280 277 275 273 273 272 269 266 263 258 258 256 251 259
228 212 209 208 210 208 202 199 195 190 181 178 174 178 186 200 216 233 246 254 267 275 285 297 295 288 285 282 279 278 282 280 279 276 275 273 270 265 262 257 258 262 262
217 212 206 205 208 205 200 200 191 185 175 168 171 178 182 198 217 233 246 260 276 288 295 292 288 288 288 285 283 284 283 283 284 283 279 275 271 266 265 261 261 259 260
223 217 211 208 210 207 201 194 187 181 164 160 168 174 186 197 215 238 257 270 288 291 291 291 289 288 286 287 286 286 287 286 284 282 278 275 271 269 265 262 263 263 262
223 226 221 217 212 203 192 186 183 172 159 161 169 177 185 196 213 238 260 270 283 292 288 287 287 288 291 289 292 293 292 287 282 280 274 271 266 263 263 262 262 264 265
231 231 227 214 207 196 184 180 173 165 159 163 168 177 177 186 207 242 266 287 292 287 287 291 287 288 291 292 300 297 294 291 287 284 279 274 269 268 264 259 258 258 259
261 242 224 206 196 190 181 172 167 160 159 165 168 165 168 173 205 242 272 282 281 284 291 291 295 299 298 301 303 301 296 297 292 290 284 279 276 271 270 266 261 255 256
263 250 207 201 192 184 174 173 161 149 158 160 157 165 168 180 193 228 260 272 283 302 297 297 304 305 304 303 307 306 296 294 295 292 290 285 277 274 270 274 271 266 263
268 244 205 192 180 170 170 157 149 150 153 155 161 166 171 178 191 221 256 280 297 299 303 306 306 304 303 308 309 304 302 296 290 291 291 287 283 275 273 270 266 266 251
270 260 187 168 161 162 154 150 144 146 149 160 164 164 166 174 192 217 248 294 306 306 301 301 308 306 300 306 306 311 305 291 295 290 287 281 279 277 278 275 270 270 248
144 147 140 136 147 153 153 152 152 153 160 160 156 156 159 169 184 212 267 306 299 298 304 312 308 296 292 300 313 312 303 300 300 294 291 289 287 286 282 279 280 277 258
141 136 144 156 152 156 158 151 150 159 152 144 142 146 155 165 178 203 280 284 299 309 307 312 305 296 304 307 314 315 311 307 306 311 302 294 294 291 283 273 266 268 257
155 159 148 151 154 161 158 151 156 144 144 142 143 149 151 169 163 187 209 281 311 317 323 311 305 315 314 315 317 319 322 321 317 310 303 301 305 299 282 269 263 268 272
173 167 151 150 152 166 160 147 142 144 144 142 146 149 153 165 166 172 102 352 335 338 318 315 319 322 324 316 321 326 330 330 323 308 321 319 317 320 303 265 277 262 260
170 161 159 155 156 156 150 131 142 139 138 143 149 150 151 151 152 147 126 163 5 330 314 326 328 327 324 326 332 334 334 332 323 336 325 321 331 335 341 305 274 261 256
167 164 168 164 155 150 137 141 143 143 143 144 148 144 137 141 135 102 116 55 352 307 321 334 329 334 332 333 342 344 344 337 337 341 333 333 339 342 342 337 338 335 330
164 167 169 161 153 150 144 145 153 151 144 141 147 154 144 142 126 127 119 57 314 337 344 343 339 337 339 342 344 348 348 345 353 343 342 346 339 345 341 340 336 337 332